Time,TemperatureF,DewpointF,PressureIn,WindDirection,WindDirectionDegrees,WindSpeedMPH,WindSpeedGustMPH,Humidity,HourlyPrecipIn,Conditions,Clouds,dailyrainin,SolarRadiationWatts/m^2,SoftwareType,DateUTC
2013-10-01 00:00:00,67.1,61.8,29.86,East,84,0.0,0.0,83,0.00,,CLR,0.00,1777.00,VWS V15.00,2013-10-01 05:00:00,
2013-10-01 00:02:00,66.6,60.2,29.86,East,84,0.0,0.0,80,0.00,,CLR,0.00,,VWS V14.01,2013-10-01 05:02:00,
2013-10-01 00:07:00,66.6,60.6,29.86,East,84,0.0,0.0,81,0.00,,CLR,0.00,,VWS V14.01,2013-10-01 05:07:00,
2013-10-01 00:10:00,66.9,61.6,29.86,East,84,0.0,0.0,83,0.00,,CLR,0.00,1779.00,VWS V15.00,2013-10-01 05:10:00,
2013-10-01 00:12:00,66.6,60.9,29.86,East,84,0.0,0.0,82,0.00,,CLR,0.00,,VWS V14.01,2013-10-01 05:12:00,
2013-10-01 00:17:00,66.6,60.9,29.86,East,84,0.0,0.0,82,0.00,,CLR,0.00,,VWS V14.01,2013-10-01 05:17:00,
2013-10-01 00:20:00,66.6,60.6,29.86,East,84,0.0,0.0,81,0.00,,SCT049,0.00,,VWS V14.01,2013-10-01 05:20:00,
2013-10-01 00:22:00,66.6,60.9,29.86,East,84,0.0,0.0,82,0.00,,CLR,0.00,,VWS V14.01,2013-10-01 05:22:00,
2013-10-01 00:27:00,66.8,61.5,29.86,East,84,0.0,0.0,83,0.00,,CLR,0.00,,VWS V14.01,2013-10-01 05:27:00,
2013-10-01 00:30:00,66.6,60.9,29.86,East,84,0.0,0.0,82,0.00,,SCT049,0.00,,VWS V14.01,2013-10-01 05:30:00,
2013-10-01 00:32:00,66.6,61.6,29.85,East,84,0.0,0.0,84,0.00,,CLR,0.00,,VWS V14.01,2013-10-01 05:32:00,
2013-10-01 00:37:00,66.8,62.2,29.85,East,84,0.0,0.0,85,0.00,,CLR,0.00,,VWS V14.01,2013-10-01 05:37:00,
2013-10-01 00:40:00,66.8,61.5,29.86,East,84,0.0,0.0,83,0.00,,SCT049,0.00,,VWS V14.01,2013-10-01 05:40:00,
2013-10-01 00:42:00,66.9,62.6,29.85,East,84,0.0,0.0,86,0.00,,CLR,0.00,,VWS V14.01,2013-10-01 05:42:00,
2013-10-01 00:47:00,67.1,63.1,29.85,East,84,0.0,0.0,87,0.00,,CLR,0.00,,VWS V14.01,2013-10-01 05:47:00,
2013-10-01 00:50:00,66.8,62.2,29.85,East,84,0.0,0.0,85,0.00,,SCT049,0.00,,VWS V14.01,2013-10-01 05:50:00,
2013-10-01 00:52:00,67.1,63.4,29.85,East,84,0.0,0.0,88,0.00,,CLR,0.00,,VWS V14.01,2013-10-01 05:52:00,
2013-10-01 00:57:00,67.1,63.4,29.85,East,84,0.0,0.0,88,0.00,,CLR,0.00,,VWS V14.01,2013-10-01 05:57:00,
2013-10-01 01:00:00,66.9,62.9,29.85,East,84,0.0,0.0,87,0.00,,SCT049,0.00,,VWS V14.01,2013-10-01 06:00:00,
2013-10-01 01:02:00,67.1,63.8,29.85,East,84,0.0,0.0,89,0.00,,CLR,0.00,,VWS V14.01,2013-10-01 06:02:00,
2013-10-01 01:07:00,67.3,64.0,29.85,East,84,0.0,0.0,89,0.00,,CLR,0.00,,VWS V14.01,2013-10-01 06:07:00,
2013-10-01 01:10:00,67.1,63.4,29.85,East,84,0.0,0.0,88,0.00,,SCT049,0.00,,VWS V14.01,2013-10-01 06:10:00,
2013-10-01 01:12:00,67.3,64.0,29.85,East,84,0.0,0.0,89,0.00,,CLR,0.00,,VWS V14.01,2013-10-01 06:12:00,
2013-10-01 01:17:00,67.1,64.1,29.84,East,84,0.0,0.0,90,0.00,,CLR,0.00,,VWS V14.01,2013-10-01 06:17:00,
2013-10-01 01:20:00,67.3,64.0,29.85,East,84,0.0,0.0,89,0.00,,SCT049,0.00,,VWS V14.01,2013-10-01 06:20:00,
2013-10-01 01:22:00,67.1,64.1,29.84,East,84,0.0,0.0,90,0.00,,CLR,0.00,,VWS V14.01,2013-10-01 06:22:00,
2013-10-01 01:27:00,67.1,64.1,29.84,East,84,0.0,0.0,90,0.00,,CLR,0.00,,VWS V14.01,2013-10-01 06:27:00,
2013-10-01 01:30:00,67.1,64.1,29.84,East,84,0.0,0.0,90,0.00,,SCT049,0.00,,VWS V14.01,2013-10-01 06:30:00,
2013-10-01 01:32:00,67.1,64.1,29.85,East,84,0.0,0.0,90,0.00,,CLR,0.00,,VWS V14.01,2013-10-01 06:32:00,
2013-10-01 01:37:00,67.1,64.4,29.85,East,84,0.0,0.0,91,0.00,,CLR,0.00,,VWS V14.01,2013-10-01 06:37:00,
2013-10-01 01:40:00,67.1,64.1,29.84,East,84,0.0,0.0,90,0.00,,SCT049,0.00,,VWS V14.01,2013-10-01 06:40:00,
2013-10-01 01:42:00,67.1,64.4,29.85,East,84,0.0,0.0,91,0.00,,CLR,0.00,,VWS V14.01,2013-10-01 06:42:00,
2013-10-01 01:47:00,66.9,64.2,29.85,East,84,0.0,0.0,91,0.00,,CLR,0.00,,VWS V14.01,2013-10-01 06:47:00,
2013-10-01 01:50:00,67.1,64.4,29.85,East,84,0.0,0.0,91,0.00,,SCT049,0.00,,VWS V14.01,2013-10-01 06:50:00,
2013-10-01 01:52:00,66.9,64.2,29.85,East,84,0.0,0.0,91,0.00,,CLR,0.00,,VWS V14.01,2013-10-01 06:52:00,
2013-10-01 01:57:00,66.9,64.2,29.85,East,84,0.0,0.0,91,0.00,,CLR,0.00,,VWS V14.01,2013-10-01 06:57:00,
2013-10-01 02:00:00,66.9,64.2,29.85,East,84,0.0,0.0,91,0.00,,SCT049,0.00,,VWS V14.01,2013-10-01 07:00:00,
2013-10-01 02:02:00,66.9,64.2,29.85,East,84,0.0,0.0,91,0.00,,CLR,0.00,,VWS V14.01,2013-10-01 07:02:00,
2013-10-01 02:07:00,66.8,64.1,29.85,East,84,0.0,0.0,91,0.00,,CLR,0.00,,VWS V14.01,2013-10-01 07:07:00,
2013-10-01 02:10:00,66.9,64.2,29.85,East,84,0.0,0.0,91,0.00,,SCT049,0.00,,VWS V14.01,2013-10-01 07:10:00,
2013-10-01 02:12:00,66.8,64.1,29.85,East,84,0.0,0.0,91,0.00,,CLR,0.00,,VWS V14.01,2013-10-01 07:12:00,
2013-10-01 02:17:00,66.6,63.9,29.85,East,84,0.0,0.0,91,0.00,,CLR,0.00,,VWS V14.01,2013-10-01 07:17:00,
2013-10-01 02:20:00,66.8,64.1,29.85,East,84,0.0,0.0,91,0.00,,SCT049,0.00,,VWS V14.01,2013-10-01 07:20:00,
2013-10-01 02:22:00,66.6,64.2,29.85,East,84,0.0,0.0,92,0.00,,CLR,0.00,,VWS V14.01,2013-10-01 07:22:00,
2013-10-01 02:27:00,66.6,63.9,29.85,East,84,0.0,0.0,91,0.00,,CLR,0.00,,VWS V14.01,2013-10-01 07:27:00,
2013-10-01 02:30:00,66.8,64.1,29.85,East,84,0.0,0.0,91,0.00,,SCT049,0.00,,VWS V14.01,2013-10-01 07:30:00,
2013-10-01 02:32:00,66.4,63.7,29.85,East,84,0.0,0.0,91,0.00,,CLR,0.00,,VWS V14.01,2013-10-01 07:32:00,
2013-10-01 02:37:00,66.3,63.6,29.85,East,84,0.0,0.0,91,0.00,,CLR,0.00,,VWS V14.01,2013-10-01 07:37:00,
2013-10-01 02:40:00,66.6,63.9,29.85,East,84,0.0,0.0,91,0.00,,SCT049,0.00,,VWS V14.01,2013-10-01 07:40:00,
2013-10-01 02:42:00,66.1,63.7,29.85,East,84,0.0,0.0,92,0.00,,CLR,0.00,,VWS V14.01,2013-10-01 07:42:00,
2013-10-01 02:47:00,66.1,63.7,29.84,East,84,0.0,0.0,92,0.00,,CLR,0.00,,VWS V14.01,2013-10-01 07:47:00,
2013-10-01 02:50:00,66.3,63.6,29.85,East,84,0.0,0.0,91,0.00,,SCT049,0.00,,VWS V14.01,2013-10-01 07:50:00,
2013-10-01 02:52:00,66.3,63.9,29.84,East,84,0.0,0.0,92,0.00,,CLR,0.00,,VWS V14.01,2013-10-01 07:52:00,
2013-10-01 02:57:00,66.3,63.9,29.84,East,84,0.0,0.0,92,0.00,,CLR,0.00,,VWS V14.01,2013-10-01 07:57:00,
2013-10-01 03:00:00,66.1,63.7,29.84,East,84,0.0,0.0,92,0.00,,SCT049,0.00,,VWS V14.01,2013-10-01 08:00:00,
2013-10-01 03:03:00,66.4,64.0,29.84,East,84,0.0,0.0,92,0.00,,FEW007,0.00,,VWS V14.01,2013-10-01 08:03:00,
2013-10-01 03:08:00,66.4,64.0,29.84,East,84,0.0,0.0,92,0.00,,FEW007,0.00,,VWS V14.01,2013-10-01 08:08:00,
2013-10-01 03:10:00,66.3,63.9,29.84,East,84,0.0,0.0,92,0.00,,SCT049,0.00,,VWS V14.01,2013-10-01 08:10:00,
2013-10-01 03:13:00,66.4,64.0,29.84,East,84,0.0,0.0,92,0.00,,BKN007,0.00,,VWS V14.01,2013-10-01 08:13:00,
2013-10-01 03:18:00,66.3,63.9,29.84,East,84,0.0,0.0,92,0.00,,BKN007,0.00,,VWS V14.01,2013-10-01 08:18:00,
2013-10-01 03:20:00,66.4,64.0,29.84,East,84,0.0,0.0,92,0.00,,SCT049,0.00,,VWS V14.01,2013-10-01 08:20:00,
2013-10-01 03:23:00,66.3,63.9,29.84,East,84,0.0,0.0,92,0.00,,OVC005,0.00,,VWS V14.01,2013-10-01 08:23:00,
2013-10-01 03:28:00,66.4,64.0,29.84,East,84,0.0,0.0,92,0.00,,OVC005,0.00,,VWS V14.01,2013-10-01 08:28:00,
2013-10-01 03:30:00,66.3,63.9,29.84,East,84,0.0,0.0,92,0.00,,SCT049,0.00,,VWS V14.01,2013-10-01 08:30:00,
2013-10-01 03:33:00,66.4,64.0,29.84,East,84,0.0,0.0,92,0.00,,OVC005,0.00,,VWS V14.01,2013-10-01 08:33:00,
2013-10-01 03:38:00,66.3,63.9,29.84,East,84,0.0,0.0,92,0.00,,OVC005,0.00,,VWS V14.01,2013-10-01 08:38:00,
2013-10-01 03:40:00,66.4,64.0,29.84,East,84,0.0,0.0,92,0.00,,SCT049,0.00,,VWS V14.01,2013-10-01 08:40:00,
2013-10-01 03:43:00,66.4,64.0,29.84,East,84,0.0,0.0,92,0.00,,OVC005,0.00,,VWS V14.01,2013-10-01 08:43:00,
2013-10-01 03:48:00,66.4,64.3,29.84,East,84,0.0,0.0,93,0.00,,OVC005,0.00,,VWS V14.01,2013-10-01 08:48:00,
2013-10-01 03:50:00,66.4,64.0,29.84,East,84,0.0,0.0,92,0.00,,SCT049,0.00,,VWS V14.01,2013-10-01 08:50:00,
2013-10-01 03:53:00,66.6,64.5,29.84,East,84,0.0,0.0,93,0.00,,OVC005,0.00,,VWS V14.01,2013-10-01 08:53:00,
2013-10-01 03:58:00,66.6,64.5,29.84,East,84,0.0,0.0,93,0.00,,OVC005,0.00,,VWS V14.01,2013-10-01 08:58:00,
2013-10-01 04:00:00,66.4,64.3,29.84,East,84,0.0,0.0,93,0.00,,SCT049,0.00,,VWS V14.01,2013-10-01 09:00:00,
2013-10-01 04:03:00,66.8,64.7,29.84,East,84,0.0,0.0,93,0.00,,OVC003,0.00,,VWS V14.01,2013-10-01 09:03:00,
2013-10-01 04:08:00,66.9,64.8,29.84,East,84,0.0,0.0,93,0.00,,OVC003,0.00,,VWS V14.01,2013-10-01 09:08:00,
2013-10-01 04:10:00,66.6,64.5,29.84,East,84,0.0,0.0,93,0.00,,SCT049,0.00,,VWS V14.01,2013-10-01 09:10:00,
2013-10-01 04:13:00,67.1,65.0,29.84,East,84,0.0,0.0,93,0.00,,OVC003,0.00,,VWS V14.01,2013-10-01 09:13:00,
2013-10-01 04:18:00,67.3,65.2,29.84,East,84,0.0,0.0,93,0.00,,OVC003,0.00,,VWS V14.01,2013-10-01 09:18:00,
2013-10-01 04:20:00,66.8,64.7,29.84,East,84,0.0,0.0,93,0.00,,SCT049,0.00,,VWS V14.01,2013-10-01 09:20:00,
2013-10-01 04:23:00,67.4,65.3,29.84,East,84,0.0,0.0,93,0.00,,OVC003,0.00,,VWS V14.01,2013-10-01 09:23:00,
2013-10-01 04:28:00,67.6,65.5,29.84,East,84,0.0,0.0,93,0.00,,OVC003,0.00,,VWS V14.01,2013-10-01 09:28:00,
2013-10-01 04:30:00,67.3,65.2,29.84,East,84,0.0,0.0,93,0.00,,SCT049,0.00,,VWS V14.01,2013-10-01 09:30:00,
2013-10-01 04:33:00,67.9,65.8,29.84,East,84,0.0,0.0,93,0.00,,OVC003,0.00,,VWS V14.01,2013-10-01 09:33:00,
2013-10-01 04:38:00,67.9,65.8,29.84,East,84,0.0,0.0,93,0.00,,OVC003,0.00,,VWS V14.01,2013-10-01 09:38:00,
2013-10-01 04:40:00,67.6,65.5,29.84,East,84,0.0,0.0,93,0.00,,SCT049,0.00,,VWS V14.01,2013-10-01 09:40:00,
2013-10-01 04:43:00,68.1,66.0,29.84,East,84,0.0,0.0,93,0.00,,,0.00,,VWS V14.01,2013-10-01 09:43:00,
2013-10-01 04:48:00,68.3,66.2,29.84,East,84,0.0,0.0,93,0.00,,,0.00,,VWS V14.01,2013-10-01 09:48:00,
2013-10-01 04:50:00,67.9,65.8,29.84,East,84,0.0,0.0,93,0.00,,SCT049,0.00,,VWS V14.01,2013-10-01 09:50:00,
2013-10-01 04:53:00,68.3,66.2,29.84,East,84,0.0,0.0,93,0.00,,,0.00,,VWS V14.01,2013-10-01 09:53:00,
2013-10-01 04:58:00,68.4,66.3,29.84,East,84,0.0,0.0,93,0.00,,,0.00,,VWS V14.01,2013-10-01 09:58:00,
2013-10-01 05:00:00,68.1,66.0,29.84,East,84,0.0,0.0,93,0.00,,SCT049,0.00,,VWS V14.01,2013-10-01 10:00:00,
2013-10-01 05:03:00,68.4,66.3,29.85,East,84,0.0,0.0,93,0.00,,,0.00,,VWS V14.01,2013-10-01 10:03:00,
2013-10-01 05:08:00,68.6,66.5,29.85,East,84,0.0,0.0,93,0.00,,,0.00,,VWS V14.01,2013-10-01 10:08:00,
2013-10-01 05:10:00,68.3,66.2,29.84,East,84,0.0,0.0,93,0.00,,SCT049,0.00,,VWS V14.01,2013-10-01 10:10:00,
2013-10-01 05:13:00,68.8,66.7,29.85,East,84,0.0,0.0,93,0.00,,,0.00,,VWS V14.01,2013-10-01 10:13:00,
2013-10-01 05:18:00,68.8,66.7,29.85,East,84,0.0,0.0,93,0.00,,,0.00,,VWS V14.01,2013-10-01 10:18:00,
2013-10-01 05:20:00,68.6,66.5,29.85,East,84,0.0,0.0,93,0.00,,SCT049,0.00,,VWS V14.01,2013-10-01 10:20:00,
2013-10-01 05:23:00,68.9,66.8,29.85,East,84,0.0,0.0,93,0.00,,,0.00,,VWS V14.01,2013-10-01 10:23:00,
2013-10-01 05:28:00,69.1,67.0,29.85,East,84,0.0,0.0,93,0.00,,,0.00,,VWS V14.01,2013-10-01 10:28:00,
2013-10-01 05:30:00,68.8,66.7,29.85,East,84,0.0,0.0,93,0.00,,SCT049,0.00,,VWS V14.01,2013-10-01 10:30:00,
2013-10-01 05:34:00,69.1,67.0,29.85,East,84,0.0,0.0,93,0.00,,,0.00,,VWS V14.01,2013-10-01 10:34:00,
2013-10-01 05:39:00,69.3,67.2,29.85,East,84,0.0,0.0,93,0.00,,,0.00,,VWS V14.01,2013-10-01 10:39:00,
2013-10-01 05:40:00,68.9,66.8,29.85,East,84,0.0,0.0,93,0.00,,SCT049,0.00,,VWS V14.01,2013-10-01 10:40:00,
2013-10-01 05:44:00,69.3,67.2,29.85,East,84,0.0,0.0,93,0.00,,,0.00,,VWS V14.01,2013-10-01 10:44:00,
2013-10-01 05:49:00,69.3,67.2,29.86,East,84,0.0,0.0,93,0.00,,,0.00,,VWS V14.01,2013-10-01 10:49:00,
2013-10-01 05:50:00,69.3,67.2,29.85,East,84,0.0,0.0,93,0.00,,SCT049,0.00,,VWS V14.01,2013-10-01 10:50:00,
2013-10-01 05:54:00,69.4,67.3,29.86,East,84,0.0,0.0,93,0.00,,,0.00,,VWS V14.01,2013-10-01 10:54:00,
2013-10-01 05:59:00,69.4,67.3,29.86,East,84,0.0,0.0,93,0.00,,,0.00,,VWS V14.01,2013-10-01 10:59:00,
2013-10-01 06:00:00,69.3,67.2,29.86,East,84,0.0,0.0,93,0.00,,SCT049,0.00,,VWS V14.01,2013-10-01 11:00:00,
2013-10-01 06:04:00,69.6,67.5,29.86,East,84,0.0,0.0,93,0.00,,,0.00,,VWS V14.01,2013-10-01 11:04:00,
2013-10-01 06:09:00,69.6,67.5,29.86,East,84,0.0,0.0,93,0.00,,,0.00,,VWS V14.01,2013-10-01 11:09:00,
2013-10-01 06:10:00,69.4,67.3,29.86,East,84,0.0,0.0,93,0.00,,SCT049,0.00,,VWS V14.01,2013-10-01 11:10:00,
2013-10-01 06:14:00,69.6,67.5,29.86,East,84,0.0,0.0,93,0.00,,,0.00,,VWS V14.01,2013-10-01 11:14:00,
2013-10-01 06:20:00,69.8,67.7,29.86,East,84,0.0,0.0,93,0.00,,,0.00,,VWS V14.01,2013-10-01 11:20:00,
2013-10-01 06:25:00,69.8,67.7,29.86,East,84,0.0,0.0,93,0.00,,,0.00,,VWS V14.01,2013-10-01 11:25:00,
2013-10-01 06:30:00,69.9,67.8,29.86,East,84,0.0,0.0,93,0.00,,,0.00,,VWS V14.01,2013-10-01 11:30:00,
2013-10-01 06:35:00,70.1,68.3,29.86,East,84,0.0,0.0,94,0.00,,,0.00,,VWS V14.01,2013-10-01 11:35:00,
2013-10-01 06:40:00,70.3,68.5,29.86,East,84,0.0,0.0,94,0.00,,,0.00,,VWS V14.01,2013-10-01 11:40:00,
2013-10-01 06:45:00,70.4,68.6,29.86,East,84,0.0,0.0,94,0.00,,,0.00,,VWS V14.01,2013-10-01 11:45:00,
2013-10-01 06:50:00,70.6,68.8,29.87,East,84,0.0,0.0,94,0.00,,,0.00,,VWS V14.01,2013-10-01 11:50:00,
2013-10-01 06:55:00,70.8,69.0,29.87,East,84,0.0,0.0,94,0.00,,,0.00,,VWS V14.01,2013-10-01 11:55:00,
2013-10-01 07:00:00,70.8,69.0,29.87,East,84,0.0,0.0,94,0.00,,,0.00,,VWS V14.01,2013-10-01 12:00:00,
2013-10-01 07:05:00,71.0,69.2,29.87,East,84,0.0,0.0,94,0.00,,,0.00,,VWS V14.01,2013-10-01 12:05:00,
2013-10-01 07:10:00,71.1,69.3,29.87,East,84,0.0,0.0,94,0.00,,,0.00,,VWS V14.01,2013-10-01 12:10:00,
2013-10-01 07:15:00,71.3,69.5,29.87,East,84,0.0,0.0,94,0.00,,,0.00,,VWS V14.01,2013-10-01 12:15:00,
2013-10-01 07:20:00,71.3,69.5,29.87,East,84,0.0,0.0,94,0.00,,,0.00,,VWS V14.01,2013-10-01 12:20:00,
2013-10-01 07:25:00,71.5,69.7,29.87,East,84,0.0,0.0,94,0.00,,,0.00,,VWS V14.01,2013-10-01 12:25:00,
2013-10-01 07:30:00,71.5,69.7,29.87,East,84,0.0,0.0,94,0.00,,,0.00,,VWS V14.01,2013-10-01 12:30:00,
2013-10-01 07:35:00,71.6,69.8,29.87,East,84,0.0,0.0,94,0.00,,,0.00,,VWS V14.01,2013-10-01 12:35:00,
2013-10-01 07:40:00,71.8,70.0,29.87,East,84,0.0,0.0,94,0.00,,,0.00,,VWS V14.01,2013-10-01 12:40:00,
2013-10-01 07:45:00,71.8,70.0,29.87,East,84,0.0,0.0,94,0.00,,,0.00,,VWS V14.01,2013-10-01 12:45:00,
2013-10-01 07:50:00,72.0,70.2,29.87,East,84,0.0,0.0,94,0.00,,,0.00,,VWS V14.01,2013-10-01 12:50:00,
2013-10-01 07:55:00,72.0,70.2,29.87,East,84,0.0,0.0,94,0.00,,,0.00,,VWS V14.01,2013-10-01 12:55:00,
2013-10-01 08:00:00,72.2,70.4,29.88,East,84,0.0,0.0,94,0.00,,,0.00,,VWS V14.01,2013-10-01 13:00:00,
2013-10-01 08:05:00,72.2,70.4,29.88,East,84,0.0,0.0,94,0.00,,,0.00,,VWS V14.01,2013-10-01 13:05:00,
2013-10-01 08:10:00,72.0,70.2,29.87,East,84,0.0,0.0,94,0.00,,SCT049,0.00,,VWS V14.01,2013-10-01 13:10:00,
2013-10-01 08:11:00,72.3,70.5,29.88,East,84,0.0,0.0,94,0.00,,,0.00,,VWS V14.01,2013-10-01 13:11:00,
2013-10-01 08:16:00,72.5,70.7,29.89,East,84,0.0,0.0,94,0.00,,,0.00,,VWS V14.01,2013-10-01 13:16:00,
2013-10-01 08:20:00,72.3,70.5,29.88,East,84,0.0,0.0,94,0.00,,SCT049,0.00,,VWS V14.01,2013-10-01 13:20:00,
2013-10-01 08:21:00,72.7,70.9,29.89,East,84,0.0,0.0,94,0.00,,,0.00,,VWS V14.01,2013-10-01 13:21:00,
2013-10-01 08:26:00,72.8,71.0,29.89,East,84,0.0,0.0,94,0.00,,,0.00,,VWS V14.01,2013-10-01 13:26:00,
2013-10-01 08:30:00,72.5,70.7,29.89,East,84,0.0,0.0,94,0.00,,SCT049,0.00,,VWS V14.01,2013-10-01 13:30:00,
2013-10-01 08:31:00,73.0,71.2,29.89,East,84,0.0,0.0,94,0.00,,,0.00,,VWS V14.01,2013-10-01 13:31:00,
2013-10-01 08:36:00,73.2,71.4,29.89,East,84,0.0,0.0,94,0.00,,,0.00,,VWS V14.01,2013-10-01 13:36:00,
2013-10-01 08:40:00,72.8,71.0,29.89,East,84,0.0,0.0,94,0.00,,SCT049,0.00,,VWS V14.01,2013-10-01 13:40:00,
2013-10-01 08:41:00,73.2,71.4,29.89,East,84,0.0,0.0,94,0.00,,,0.00,,VWS V14.01,2013-10-01 13:41:00,
2013-10-01 08:46:00,73.4,71.6,29.89,East,84,0.0,0.0,94,0.00,,,0.00,,VWS V14.01,2013-10-01 13:46:00,
2013-10-01 08:50:00,73.2,71.4,29.89,East,84,0.0,0.0,94,0.00,,SCT049,0.00,,VWS V14.01,2013-10-01 13:50:00,
2013-10-01 08:51:00,73.7,72.2,29.89,East,84,0.0,0.0,95,0.00,,,0.00,,VWS V14.01,2013-10-01 13:51:00,
2013-10-01 08:56:00,74.1,72.6,29.89,East,84,0.0,0.0,95,0.00,,,0.00,,VWS V14.01,2013-10-01 13:56:00,
2013-10-01 09:00:00,73.4,71.6,29.89,East,84,0.0,0.0,94,0.00,,SCT049,0.00,,VWS V14.01,2013-10-01 14:00:00,
2013-10-01 09:01:00,74.2,72.4,29.89,East,84,0.0,0.0,94,0.00,,,0.00,,VWS V14.01,2013-10-01 14:01:00,
2013-10-01 09:06:00,74.4,72.6,29.89,East,84,0.0,0.0,94,0.00,,,0.00,,VWS V14.01,2013-10-01 14:06:00,
2013-10-01 09:10:00,74.1,72.6,29.89,East,84,0.0,0.0,95,0.00,,SCT049,0.00,,VWS V14.01,2013-10-01 14:10:00,
2013-10-01 09:11:00,74.8,73.0,29.89,East,84,0.0,0.0,94,0.00,,,0.00,,VWS V14.01,2013-10-01 14:11:00,
2013-10-01 09:16:00,74.8,73.0,29.89,East,84,0.0,0.0,94,0.00,,,0.00,,VWS V14.01,2013-10-01 14:16:00,
2013-10-01 09:20:00,74.4,72.6,29.89,East,84,0.0,0.0,94,0.00,,SCT049,0.00,,VWS V14.01,2013-10-01 14:20:00,
2013-10-01 09:21:00,74.9,73.1,29.89,East,84,0.0,0.0,94,0.00,,,0.00,,VWS V14.01,2013-10-01 14:21:00,
2013-10-01 09:26:00,75.1,73.3,29.89,East,84,0.0,0.0,94,0.00,,,0.00,,VWS V14.01,2013-10-01 14:26:00,
2013-10-01 09:30:00,74.9,73.1,29.89,East,84,0.0,0.0,94,0.00,,SCT049,0.00,,VWS V14.01,2013-10-01 14:30:00,
2013-10-01 09:31:00,75.3,73.5,29.90,East,84,0.0,0.0,94,0.00,,,0.00,,VWS V14.01,2013-10-01 14:31:00,
2013-10-01 09:36:00,75.5,73.7,29.90,East,84,0.0,0.0,94,0.00,,,0.00,,VWS V14.01,2013-10-01 14:36:00,
2013-10-01 09:40:00,75.1,73.3,29.89,East,84,0.0,0.0,94,0.00,,SCT049,0.00,,VWS V14.01,2013-10-01 14:40:00,
2013-10-01 09:41:00,75.6,73.8,29.90,East,84,0.0,0.0,94,0.00,,,0.00,,VWS V14.01,2013-10-01 14:41:00,
2013-10-01 09:46:00,75.6,73.4,29.90,East,84,0.0,0.0,93,0.00,,,0.00,,VWS V14.01,2013-10-01 14:46:00,
2013-10-01 09:50:00,75.5,73.7,29.90,East,84,0.0,0.0,94,0.00,,SCT049,0.00,,VWS V14.01,2013-10-01 14:50:00,
2013-10-01 09:51:00,75.8,73.6,29.90,East,84,0.0,0.0,93,0.00,,,0.00,,VWS V14.01,2013-10-01 14:51:00,
2013-10-01 09:56:00,76.0,73.5,29.90,East,84,0.0,0.0,92,0.00,,,0.00,,VWS V14.01,2013-10-01 14:56:00,
2013-10-01 10:00:00,75.6,73.4,29.90,East,84,0.0,0.0,93,0.00,,SCT049,0.00,,VWS V14.01,2013-10-01 15:00:00,
2013-10-01 10:01:00,76.2,73.7,29.91,East,84,0.0,0.0,92,0.00,,OVC013,0.00,,VWS V14.01,2013-10-01 15:01:00,
2013-10-01 10:06:00,76.5,73.7,29.91,East,84,0.0,0.0,91,0.00,,OVC013,0.00,,VWS V14.01,2013-10-01 15:06:00,
2013-10-01 10:10:00,76.0,73.5,29.90,East,84,0.0,0.0,92,0.00,,SCT049,0.00,,VWS V14.01,2013-10-01 15:10:00,
2013-10-01 10:11:00,76.9,73.4,29.91,East,84,0.0,0.0,89,0.00,,OVC013,0.00,,VWS V14.01,2013-10-01 15:11:00,
2013-10-01 10:17:00,76.9,72.7,29.91,East,84,0.0,0.0,87,0.00,,OVC013,0.00,,VWS V14.01,2013-10-01 15:17:00,
2013-10-01 10:20:00,76.5,73.7,29.91,East,84,0.0,0.0,91,0.00,,SCT049,0.00,,VWS V14.01,2013-10-01 15:20:00,
2013-10-01 10:22:00,77.1,72.2,29.91,East,84,0.0,0.0,85,0.00,,OVC017,0.00,,VWS V14.01,2013-10-01 15:22:00,
2013-10-01 10:27:00,77.4,72.5,29.91,East,84,0.0,0.0,85,0.00,,OVC017,0.00,,VWS V14.01,2013-10-01 15:27:00,
2013-10-01 10:30:00,76.9,73.1,29.91,East,84,0.0,0.0,88,0.00,,SCT049,0.00,,VWS V14.01,2013-10-01 15:30:00,
2013-10-01 10:32:00,77.6,72.0,29.92,East,84,0.0,0.0,83,0.00,,OVC017,0.00,,VWS V14.01,2013-10-01 15:32:00,
2013-10-01 10:37:00,77.8,72.2,29.92,East,84,0.0,0.0,83,0.00,,OVC017,0.00,,VWS V14.01,2013-10-01 15:37:00,
2013-10-01 10:40:00,77.4,72.5,29.91,East,84,0.0,0.0,85,0.00,,SCT049,0.00,,VWS V14.01,2013-10-01 15:40:00,
2013-10-01 10:42:00,78.3,72.0,29.92,East,84,0.0,0.0,81,0.00,,OVC017,0.00,,VWS V14.01,2013-10-01 15:42:00,
2013-10-01 10:47:00,78.7,72.0,29.92,East,84,0.0,0.0,80,0.00,,OVC017,0.00,,VWS V14.01,2013-10-01 15:47:00,
2013-10-01 10:50:00,77.8,72.2,29.92,East,84,0.0,0.0,83,0.00,,SCT049,0.00,,VWS V14.01,2013-10-01 15:50:00,
2013-10-01 10:52:00,79.1,71.7,29.92,East,84,0.0,0.0,78,0.00,,OVC017,0.00,,VWS V14.01,2013-10-01 15:52:00,
2013-10-01 10:57:00,79.3,71.8,29.92,East,84,0.0,0.0,78,0.00,,OVC017,0.00,,VWS V14.01,2013-10-01 15:57:00,
2013-10-01 11:00:00,78.7,71.6,29.92,East,84,0.0,0.0,79,0.00,,SCT049,0.00,,VWS V14.01,2013-10-01 16:00:00,
2013-10-01 11:02:00,79.4,71.9,29.92,East,84,0.0,0.0,78,0.00,,OVC017,0.00,,VWS V14.01,2013-10-01 16:02:00,
2013-10-01 11:07:00,79.4,71.9,29.92,East,84,0.0,0.0,78,0.00,,OVC017,0.00,,VWS V14.01,2013-10-01 16:07:00,
2013-10-01 11:10:00,79.3,72.2,29.92,East,84,0.0,0.0,79,0.00,,SCT049,0.00,,VWS V14.01,2013-10-01 16:10:00,
2013-10-01 11:12:00,79.6,72.1,29.92,East,84,0.0,0.0,78,0.00,,OVC017,0.00,,VWS V14.01,2013-10-01 16:12:00,
2013-10-01 11:17:00,79.6,71.4,29.92,East,82,0.0,0.0,76,0.00,,OVC017,0.00,,VWS V14.01,2013-10-01 16:17:00,
2013-10-01 11:20:00,79.4,71.9,29.92,East,84,0.0,0.0,78,0.00,,SCT049,0.00,,VWS V14.01,2013-10-01 16:20:00,
2013-10-01 11:22:00,80.0,71.8,29.92,East,82,0.0,0.0,76,0.00,,OVC017,0.00,,VWS V14.01,2013-10-01 16:22:00,
2013-10-01 11:27:00,80.2,71.6,29.92,East,81,0.0,0.0,75,0.00,,OVC017,0.00,,VWS V14.01,2013-10-01 16:27:00,
2013-10-01 11:30:00,79.6,71.0,29.92,East,82,0.0,0.0,75,0.00,,SCT049,0.00,,VWS V14.01,2013-10-01 16:30:00,
2013-10-01 11:31:00,80.2,71.6,29.91,East,81,0.0,0.0,75,0.00,,OVC017,0.00,,VWS V14.01,2013-10-01 16:31:00,
2013-10-01 11:36:00,80.6,71.9,29.91,East,81,0.0,0.0,75,0.00,,OVC017,0.00,,VWS V14.01,2013-10-01 16:36:00,
2013-10-01 11:40:00,80.0,71.0,29.92,East,81,0.0,0.0,74,0.00,,SCT049,0.00,,VWS V14.01,2013-10-01 16:40:00,
2013-10-01 11:41:00,80.9,72.6,29.91,East,81,0.0,0.0,76,0.00,,OVC017,0.00,,VWS V14.01,2013-10-01 16:41:00,
2013-10-01 11:46:00,81.5,72.4,29.90,East,81,0.0,0.0,74,0.00,,OVC017,0.00,,VWS V14.01,2013-10-01 16:46:00,
2013-10-01 11:50:00,80.6,71.9,29.91,East,81,0.0,0.0,75,0.00,,SCT049,0.00,,VWS V14.01,2013-10-01 16:50:00,
2013-10-01 11:51:00,81.9,72.0,29.90,East,80,0.0,0.0,72,0.00,,SCT026,0.00,,VWS V14.01,2013-10-01 16:51:00,
2013-10-01 11:56:00,82.7,71.9,29.90,East,80,0.0,0.0,70,0.00,,SCT026,0.00,,VWS V14.01,2013-10-01 16:56:00,
2013-10-01 12:00:00,81.5,72.4,29.90,East,81,0.0,0.0,74,0.00,,SCT049,0.00,,VWS V14.01,2013-10-01 17:00:00,
2013-10-01 12:01:00,83.3,72.1,29.90,ENE,78,0.0,0.0,69,0.00,,FEW021,0.00,,VWS V14.01,2013-10-01 17:01:00,
2013-10-01 12:06:00,84.0,72.3,29.90,ENE,78,0.0,0.0,68,0.00,,FEW021,0.00,,VWS V14.01,2013-10-01 17:06:00,
2013-10-01 12:10:00,82.7,71.9,29.90,East,80,0.0,0.0,70,0.00,,SCT049,0.00,,VWS V14.01,2013-10-01 17:10:00,
2013-10-01 12:11:00,84.4,72.7,29.90,ENE,78,0.0,0.0,68,0.00,,FEW021,0.00,,VWS V14.01,2013-10-01 17:11:00,
2013-10-01 12:16:00,84.6,72.0,29.90,ENE,78,0.0,0.0,66,0.00,,FEW021,0.00,,VWS V14.01,2013-10-01 17:16:00,
2013-10-01 12:20:00,84.0,72.7,29.90,ENE,78,0.0,0.0,69,0.00,,SCT049,0.00,,VWS V14.01,2013-10-01 17:20:00,
2013-10-01 12:21:00,85.2,72.6,29.90,ENE,78,0.0,0.0,66,0.00,,FEW021,0.00,,VWS V14.01,2013-10-01 17:21:00,
2013-10-01 12:26:00,85.8,74.0,29.90,ENE,78,0.0,0.0,68,0.00,,FEW021,0.00,,VWS V14.01,2013-10-01 17:26:00,
2013-10-01 12:30:00,84.6,72.4,29.90,ENE,78,0.0,0.0,67,0.00,,SCT049,0.00,,VWS V14.01,2013-10-01 17:30:00,
2013-10-01 12:32:00,86.5,72.4,29.90,ENE,78,0.0,0.0,63,0.00,,FEW021,0.00,,VWS V14.01,2013-10-01 17:32:00,
2013-10-01 12:37:00,86.7,71.7,29.90,ENE,78,0.0,0.0,61,0.00,,FEW021,0.00,,VWS V14.01,2013-10-01 17:37:00,
2013-10-01 12:40:00,85.6,73.8,29.90,ENE,78,0.0,0.0,68,0.00,,SCT049,0.00,,VWS V14.01,2013-10-01 17:40:00,
2013-10-01 12:42:00,86.7,72.1,29.90,ENE,78,0.0,0.0,62,0.00,,FEW021,0.00,,VWS V14.01,2013-10-01 17:42:00,
2013-10-01 12:47:00,86.9,71.3,29.90,ENE,78,0.0,0.0,60,0.00,,FEW021,0.00,,VWS V14.01,2013-10-01 17:47:00,
2013-10-01 12:50:00,86.7,72.1,29.90,ENE,78,0.0,0.0,62,0.00,,SCT049,0.00,,VWS V14.01,2013-10-01 17:50:00,
2013-10-01 12:52:00,86.7,71.7,29.90,ENE,78,0.0,0.0,61,0.00,,FEW021,0.00,,VWS V14.01,2013-10-01 17:52:00,
2013-10-01 12:57:00,86.2,71.7,29.90,ENE,78,0.0,0.0,62,0.00,,FEW021,0.00,,VWS V14.01,2013-10-01 17:57:00,
2013-10-01 13:00:00,86.9,71.8,29.90,ENE,78,0.0,0.0,61,0.00,,SCT049,0.00,,VWS V14.01,2013-10-01 18:00:00,
2013-10-01 13:02:00,86.0,71.9,29.89,ENE,78,0.0,0.0,63,0.00,,SCT021,0.00,,VWS V14.01,2013-10-01 18:02:00,
2013-10-01 13:07:00,86.7,74.0,29.89,ENE,78,0.0,0.0,66,0.00,,SCT021,0.00,,VWS V14.01,2013-10-01 18:07:00,
2013-10-01 13:10:00,86.2,71.2,29.90,ENE,78,0.0,0.0,61,0.00,,SCT049,0.00,,VWS V14.01,2013-10-01 18:10:00,
2013-10-01 13:12:00,87.3,72.7,29.89,ENE,78,0.0,0.0,62,0.00,,SCT021,0.00,,VWS V14.01,2013-10-01 18:12:00,
2013-10-01 13:17:00,87.7,74.0,29.89,ENE,78,0.0,0.0,64,0.00,,SCT021,0.00,,VWS V14.01,2013-10-01 18:17:00,
2013-10-01 13:20:00,86.5,73.8,29.89,ENE,78,0.0,0.0,66,0.00,,SCT049,0.00,,VWS V14.01,2013-10-01 18:20:00,
2013-10-01 13:22:00,87.7,71.1,29.89,ENE,78,0.0,0.0,58,0.00,,SCT021,0.00,,VWS V14.01,2013-10-01 18:22:00,
2013-10-01 13:27:00,87.3,72.2,29.89,ENE,78,0.0,0.0,61,0.00,,SCT021,0.00,,VWS V14.01,2013-10-01 18:27:00,
2013-10-01 13:30:00,87.7,73.6,29.89,ENE,78,0.0,0.0,63,0.00,,SCT049,0.00,,VWS V14.01,2013-10-01 18:30:00,
2013-10-01 13:32:00,87.3,74.1,29.89,ENE,78,0.0,0.0,65,0.00,,SCT021,0.00,,VWS V14.01,2013-10-01 18:32:00,
2013-10-01 13:37:00,87.7,74.5,29.89,ENE,78,0.0,0.0,65,0.00,,SCT021,0.00,,VWS V14.01,2013-10-01 18:37:00,
2013-10-01 13:40:00,87.5,72.9,29.89,ENE,78,0.0,0.0,62,0.00,,SCT049,0.00,,VWS V14.01,2013-10-01 18:40:00,
2013-10-01 13:42:00,88.5,72.8,29.89,ENE,78,0.0,0.0,60,0.00,,SCT021,0.00,,VWS V14.01,2013-10-01 18:42:00,
2013-10-01 13:48:00,89.0,72.8,29.88,SW,232,0.0,0.0,59,0.00,,SCT021,0.00,,VWS V14.01,2013-10-01 18:48:00,
2013-10-01 13:50:00,87.5,73.8,29.89,ENE,78,0.0,0.0,64,0.00,,SCT049,0.00,,VWS V14.01,2013-10-01 18:50:00,
2013-10-01 13:53:00,89.2,73.5,29.88,SW,231,0.0,0.0,60,0.00,,SCT021,0.00,,VWS V14.01,2013-10-01 18:53:00,
2013-10-01 13:58:00,89.4,71.7,29.88,SW,234,0.0,0.0,56,0.00,,SCT021,0.00,,VWS V14.01,2013-10-01 18:58:00,
2013-10-01 14:00:00,88.8,72.1,29.88,SSW,205,0.0,0.0,58,0.00,,SCT049,0.00,,VWS V14.01,2013-10-01 19:00:00,
2013-10-01 14:03:00,89.2,73.5,29.87,SW,234,0.0,0.0,60,0.00,,BKN055,0.00,,VWS V14.01,2013-10-01 19:03:00,
2013-10-01 14:08:00,89.4,73.2,29.87,SW,234,0.0,0.0,59,0.00,,BKN055,0.00,,VWS V14.01,2013-10-01 19:08:00,
2013-10-01 14:10:00,89.4,72.7,29.88,SW,232,0.0,0.0,58,0.00,,SCT049,0.00,,VWS V14.01,2013-10-01 19:10:00,
2013-10-01 14:13:00,89.2,74.0,29.87,North,355,0.0,0.0,61,0.00,,BKN055,0.00,,VWS V14.01,2013-10-01 19:13:00,
2013-10-01 14:18:00,89.2,70.4,29.86,North,355,0.0,0.0,54,0.00,,BKN055,0.00,,VWS V14.01,2013-10-01 19:18:00,
2013-10-01 14:20:00,89.4,74.2,29.87,SW,234,0.0,0.0,61,0.00,,SCT049,0.00,,VWS V14.01,2013-10-01 19:20:00,
2013-10-01 14:23:00,89.2,70.9,29.86,North,355,0.0,0.0,55,0.00,,BKN055,0.00,,VWS V14.01,2013-10-01 19:23:00,
2013-10-01 14:28:00,89.6,70.8,29.86,North,355,0.0,0.0,54,0.00,,BKN055,0.00,,VWS V14.01,2013-10-01 19:28:00,
2013-10-01 14:30:00,89.2,70.4,29.86,North,355,0.0,0.0,54,0.00,,SCT049,0.00,,VWS V14.01,2013-10-01 19:30:00,
2013-10-01 14:33:00,90.0,71.1,29.85,North,355,0.0,0.0,54,0.00,,BKN055,0.00,,VWS V14.01,2013-10-01 19:33:00,
2013-10-01 14:38:00,90.2,71.3,29.85,North,355,0.0,0.0,54,0.00,,BKN055,0.00,,VWS V14.01,2013-10-01 19:38:00,
2013-10-01 14:40:00,89.4,71.1,29.86,North,355,0.0,0.0,55,0.00,,SCT049,0.00,,VWS V14.01,2013-10-01 19:40:00,
2013-10-01 14:43:00,90.5,69.3,29.85,North,355,0.0,0.0,50,0.00,,BKN055,0.00,,VWS V14.01,2013-10-01 19:43:00,
2013-10-01 14:48:00,90.5,69.3,29.85,North,355,0.0,0.0,50,0.00,,BKN055,0.00,,VWS V14.01,2013-10-01 19:48:00,
2013-10-01 14:50:00,90.0,72.7,29.85,North,355,0.0,0.0,57,0.00,,SCT049,0.00,,VWS V14.01,2013-10-01 19:50:00,
2013-10-01 14:54:00,90.2,70.8,29.85,NNW,342,0.0,0.0,53,0.00,,BKN055,0.00,,VWS V14.01,2013-10-01 19:54:00,
2013-10-01 14:59:00,90.5,69.3,29.85,NNW,342,0.0,0.0,50,0.00,,BKN055,0.00,,VWS V14.01,2013-10-01 19:59:00,
2013-10-01 15:00:00,90.7,69.5,29.85,North,355,0.0,0.0,50,0.00,,SCT049,0.00,,VWS V14.01,2013-10-01 20:00:00,
2013-10-01 15:04:00,90.9,70.3,29.84,NNW,342,0.0,0.0,51,0.00,,SCT034,0.00,,VWS V14.01,2013-10-01 20:04:00,
2013-10-01 15:09:00,91.1,70.5,29.84,NNW,342,0.0,0.0,51,0.00,,SCT034,0.00,,VWS V14.01,2013-10-01 20:09:00,
2013-10-01 15:10:00,90.2,70.2,29.85,NNW,342,0.0,0.0,52,0.00,,SCT049,0.00,,VWS V14.01,2013-10-01 20:10:00,
2013-10-01 15:14:00,91.3,70.1,29.84,NNW,342,0.0,0.0,50,0.00,,SCT034,0.00,,VWS V14.01,2013-10-01 20:14:00,
2013-10-01 15:19:00,91.3,67.0,29.84,NNW,342,0.0,0.0,45,0.00,,SCT034,0.00,,VWS V14.01,2013-10-01 20:19:00,
2013-10-01 15:20:00,91.1,69.9,29.84,NNW,342,0.0,0.0,50,0.00,,SCT049,0.00,,VWS V14.01,2013-10-01 20:20:00,
2013-10-01 15:24:00,91.3,68.3,29.84,NNW,342,0.0,0.0,47,0.00,,SCT034,0.00,,VWS V14.01,2013-10-01 20:24:00,
2013-10-01 15:29:00,91.1,69.3,29.84,NNW,342,0.0,0.0,49,0.00,,SCT034,0.00,,VWS V14.01,2013-10-01 20:29:00,
2013-10-01 15:30:00,91.3,70.1,29.84,NNW,342,0.0,0.0,50,0.00,,SCT049,0.00,,VWS V14.01,2013-10-01 20:30:00,
2013-10-01 15:34:00,91.1,69.3,29.84,NNW,342,0.0,0.0,49,0.00,,SCT034,0.00,,VWS V14.01,2013-10-01 20:34:00,
2013-10-01 15:39:00,91.3,69.5,29.84,NNW,342,0.0,0.0,49,0.00,,SCT034,0.00,,VWS V14.01,2013-10-01 20:39:00,
2013-10-01 15:40:00,91.3,69.5,29.84,NNW,342,0.0,0.0,49,0.00,,SCT049,0.00,,VWS V14.01,2013-10-01 20:40:00,
2013-10-01 15:44:00,91.6,70.3,29.84,NNW,342,0.0,0.0,50,0.00,,SCT034,0.00,,VWS V14.01,2013-10-01 20:44:00,
2013-10-01 15:49:00,91.8,72.8,29.84,NNW,342,0.0,0.0,54,0.00,,SCT034,0.00,,VWS V14.01,2013-10-01 20:49:00,
2013-10-01 15:50:00,91.1,70.5,29.84,NNW,342,0.0,0.0,51,0.00,,SCT049,0.00,,VWS V14.01,2013-10-01 20:50:00,
2013-10-01 15:54:00,91.8,69.9,29.84,NNW,342,0.0,0.0,49,0.00,,SCT034,0.00,,VWS V14.01,2013-10-01 20:54:00,
2013-10-01 15:59:00,91.3,70.1,29.84,NNW,342,0.0,0.0,50,0.00,,SCT034,0.00,,VWS V14.01,2013-10-01 20:59:00,
2013-10-01 16:00:00,91.8,71.7,29.84,NNW,342,0.0,0.0,52,0.00,,SCT049,0.00,,VWS V14.01,2013-10-01 21:00:00,
2013-10-01 16:04:00,90.5,71.1,29.84,NNW,342,0.0,0.0,53,0.00,,SCT049,0.00,,VWS V14.01,2013-10-01 21:04:00,
2013-10-01 16:09:00,89.8,70.9,29.84,NNW,342,0.0,0.0,54,0.00,,SCT049,0.00,,VWS V14.01,2013-10-01 21:09:00,
2013-10-01 16:10:00,91.6,70.9,29.84,NNW,342,0.0,0.0,51,0.00,,SCT049,0.00,,VWS V14.01,2013-10-01 21:10:00,
2013-10-01 16:15:00,89.0,68.5,29.84,NNW,342,0.0,0.0,51,0.00,,SCT049,0.00,,VWS V14.01,2013-10-01 21:15:00,
2013-10-01 16:20:00,88.3,70.6,29.84,NNW,342,0.0,0.0,56,0.00,,SCT049,0.00,,VWS V14.01,2013-10-01 21:20:00,
2013-10-01 16:25:00,88.1,69.9,29.84,NNW,342,0.0,0.0,55,0.00,,SCT049,0.00,,VWS V14.01,2013-10-01 21:25:00,
2013-10-01 16:30:00,87.7,70.6,29.83,NNW,342,0.0,0.0,57,0.00,,SCT049,0.00,,VWS V14.01,2013-10-01 21:30:00,
2013-10-01 16:35:00,87.1,72.0,29.83,NNW,342,0.0,0.0,61,0.00,,SCT049,0.00,,VWS V14.01,2013-10-01 21:35:00,
2013-10-01 16:40:00,86.9,72.3,29.83,NNW,342,0.0,0.0,62,0.00,,SCT049,0.00,,VWS V14.01,2013-10-01 21:40:00,
2013-10-01 16:45:00,86.5,69.0,29.83,NNW,342,0.0,0.0,56,0.00,,SCT049,0.00,,VWS V14.01,2013-10-01 21:45:00,
2013-10-01 16:50:00,86.5,70.5,29.83,NNW,342,0.0,0.0,59,0.00,,SCT049,0.00,,VWS V14.01,2013-10-01 21:50:00,
2013-10-01 16:55:00,86.2,70.2,29.83,NNW,342,0.0,0.0,59,0.00,,SCT049,0.00,,VWS V14.01,2013-10-01 21:55:00,
2013-10-01 17:00:00,86.5,69.5,29.83,NNW,342,0.0,0.0,57,0.00,,CLR,0.00,,VWS V14.01,2013-10-01 22:00:00,
2013-10-01 17:01:00,85.8,70.3,29.83,NNW,342,0.0,0.0,60,0.00,,SCT046,0.00,,VWS V14.01,2013-10-01 22:01:00,
2013-10-01 17:06:00,85.6,70.6,29.83,NNW,342,0.0,0.0,61,0.00,,SCT046,0.00,,VWS V14.01,2013-10-01 22:06:00,
2013-10-01 17:10:00,86.2,70.2,29.83,NNW,342,0.0,0.0,59,0.00,,CLR,0.00,,VWS V14.01,2013-10-01 22:10:00,
2013-10-01 17:11:00,85.4,71.4,29.83,NNW,342,0.0,0.0,63,0.00,,SCT046,0.00,,VWS V14.01,2013-10-01 22:11:00,
2013-10-01 17:16:00,85.0,71.5,29.82,NNW,342,0.0,0.0,64,0.00,,SCT046,0.00,,VWS V14.01,2013-10-01 22:16:00,
2013-10-01 17:20:00,85.6,70.6,29.83,NNW,342,0.0,0.0,61,0.00,,CLR,0.00,,VWS V14.01,2013-10-01 22:20:00,
2013-10-01 17:21:00,84.8,71.7,29.82,NNW,342,0.0,0.0,65,0.00,,SCT046,0.00,,VWS V14.01,2013-10-01 22:21:00,
2013-10-01 17:26:00,84.4,70.9,29.82,NNW,342,0.0,0.0,64,0.00,,SCT046,0.00,,VWS V14.01,2013-10-01 22:26:00,
2013-10-01 17:30:00,85.0,71.5,29.82,NNW,342,0.0,0.0,64,0.00,,CLR,0.00,,VWS V14.01,2013-10-01 22:30:00,
2013-10-01 17:31:00,84.4,71.4,29.82,NNW,342,0.0,0.0,65,0.00,,SCT046,0.00,,VWS V14.01,2013-10-01 22:31:00,
2013-10-01 17:36:00,84.2,71.2,29.82,NNW,342,0.0,0.0,65,0.00,,SCT046,0.00,,VWS V14.01,2013-10-01 22:36:00,
2013-10-01 17:40:00,84.4,70.9,29.82,NNW,342,0.0,0.0,64,0.00,,CLR,0.00,,VWS V14.01,2013-10-01 22:40:00,
2013-10-01 17:41:00,84.2,71.6,29.82,NNW,342,0.0,0.0,66,0.00,,SCT046,0.00,,VWS V14.01,2013-10-01 22:41:00,
2013-10-01 17:47:00,84.2,71.2,29.82,NNW,342,0.0,0.0,65,0.00,,SCT046,0.00,,VWS V14.01,2013-10-01 22:47:00,
2013-10-01 17:50:00,84.2,71.2,29.82,NNW,342,0.0,0.0,65,0.00,,CLR,0.00,,VWS V14.01,2013-10-01 22:50:00,
2013-10-01 17:52:00,84.4,70.9,29.82,NNW,342,0.0,0.0,64,0.00,,SCT046,0.00,,VWS V14.01,2013-10-01 22:52:00,
2013-10-01 17:57:00,84.6,72.0,29.82,NNW,342,0.0,0.0,66,0.00,,SCT046,0.00,,VWS V14.01,2013-10-01 22:57:00,
2013-10-01 18:00:00,84.2,71.2,29.82,NNW,342,0.0,0.0,65,0.00,,CLR,0.00,,VWS V14.01,2013-10-01 23:00:00,
2013-10-01 18:02:00,84.6,72.4,29.82,NNW,342,0.0,0.0,67,0.00,,FEW050,0.00,,VWS V14.01,2013-10-01 23:02:00,
2013-10-01 18:07:00,84.4,72.2,29.82,NNW,342,0.0,0.0,67,0.00,,FEW050,0.00,,VWS V14.01,2013-10-01 23:07:00,
2013-10-01 18:10:00,84.6,72.0,29.82,NNW,342,0.0,0.0,66,0.00,,CLR,0.00,,VWS V14.01,2013-10-01 23:10:00,
2013-10-01 18:12:00,84.2,72.1,29.82,NNW,342,0.0,0.0,67,0.00,,FEW050,0.00,,VWS V14.01,2013-10-01 23:12:00,
2013-10-01 18:17:00,84.2,71.6,29.83,NNW,342,0.0,0.0,66,0.00,,FEW050,0.00,,VWS V14.01,2013-10-01 23:17:00,
2013-10-01 18:20:00,84.0,71.4,29.83,NNW,342,0.0,0.0,66,0.00,,FEW050,0.00,,VWS V14.01,2013-10-01 23:20:00,
2013-10-01 18:25:00,83.8,71.2,29.83,NNW,342,0.0,0.0,66,0.00,,FEW050,0.00,,VWS V14.01,2013-10-01 23:25:00,
2013-10-01 18:30:00,83.6,71.1,29.83,NNW,342,0.0,0.0,66,0.00,,FEW050,0.00,,VWS V14.01,2013-10-01 23:30:00,
2013-10-01 18:35:00,83.5,71.4,29.83,NNW,342,0.0,0.0,67,0.00,,FEW050,0.00,,VWS V14.01,2013-10-01 23:35:00,
2013-10-01 18:40:00,83.5,71.8,29.83,NNW,342,0.0,0.0,68,0.00,,FEW050,0.00,,VWS V14.01,2013-10-01 23:40:00,
2013-10-01 18:45:00,83.3,71.6,29.83,NNW,342,0.0,0.0,68,0.00,,FEW050,0.00,,VWS V14.01,2013-10-01 23:45:00,
2013-10-01 18:50:00,83.1,71.4,29.83,NNW,342,0.0,0.0,68,0.00,,FEW050,0.00,,VWS V14.01,2013-10-01 23:50:00,
2013-10-01 18:55:00,82.9,71.7,29.83,NNW,342,0.0,0.0,69,0.00,,FEW050,0.00,,VWS V14.01,2013-10-01 23:55:00,
2013-10-01 19:00:00,82.7,71.5,29.83,NNW,342,0.0,0.0,69,0.00,,FEW050,0.00,,VWS V14.01,2013-10-02 00:00:00,
2013-10-01 19:05:00,82.5,71.3,29.83,NNW,342,0.0,0.0,69,0.00,,FEW050,0.00,,VWS V14.01,2013-10-02 00:05:00,
2013-10-01 19:10:00,82.3,71.5,29.83,NNW,342,0.0,0.0,70,0.00,,FEW050,0.00,,VWS V14.01,2013-10-02 00:10:00,
2013-10-01 19:15:00,82.1,71.3,29.83,NNW,342,0.0,0.0,70,0.00,,FEW050,0.00,,VWS V14.01,2013-10-02 00:15:00,
2013-10-01 19:17:00,81.9,71.2,29.84,NNW,342,0.0,0.0,70,0.00,,FEW050,0.00,,VWS V14.01,2013-10-02 00:17:00,
2013-10-01 19:20:00,82.5,71.3,29.83,NNW,342,0.0,0.0,69,0.00,,CLR,0.00,,VWS V14.01,2013-10-02 00:20:00,
2013-10-01 19:22:00,81.7,71.4,29.84,NNW,342,0.0,0.0,71,0.00,,FEW050,0.00,,VWS V14.01,2013-10-02 00:22:00,
2013-10-01 19:27:00,81.5,71.2,29.84,NNW,342,0.0,0.0,71,0.00,,FEW050,0.00,,VWS V14.01,2013-10-02 00:27:00,
2013-10-01 19:30:00,82.1,71.3,29.84,NNW,342,0.0,0.0,70,0.00,,CLR,0.00,,VWS V14.01,2013-10-02 00:30:00,
2013-10-01 19:32:00,81.1,70.8,29.84,NNW,342,0.0,0.0,71,0.00,,FEW050,0.00,,VWS V14.01,2013-10-02 00:32:00,
2013-10-01 19:37:00,80.9,71.0,29.84,NNW,342,0.0,0.0,72,0.00,,FEW050,0.00,,VWS V14.01,2013-10-02 00:37:00,
2013-10-01 19:40:00,81.5,71.2,29.84,NNW,342,0.0,0.0,71,0.00,,CLR,0.00,,VWS V14.01,2013-10-02 00:40:00,
2013-10-01 19:42:00,80.7,70.8,29.84,NNW,342,0.0,0.0,72,0.00,,FEW050,0.00,,VWS V14.01,2013-10-02 00:42:00,
2013-10-01 19:47:00,80.6,71.2,29.84,NNW,342,0.0,0.0,73,0.00,,FEW050,0.00,,VWS V14.01,2013-10-02 00:47:00,
2013-10-01 19:50:00,80.9,71.0,29.84,NNW,342,0.0,0.0,72,0.00,,CLR,0.00,,VWS V14.01,2013-10-02 00:50:00,
2013-10-01 19:52:00,80.2,71.2,29.84,NNW,342,0.0,0.0,74,0.00,,FEW050,0.00,,VWS V14.01,2013-10-02 00:52:00,
2013-10-01 19:57:00,80.0,71.4,29.84,NNW,342,0.0,0.0,75,0.00,,FEW050,0.00,,VWS V14.01,2013-10-02 00:57:00,
2013-10-01 20:00:00,80.6,71.2,29.84,NNW,342,0.0,0.0,73,0.00,,CLR,0.00,,VWS V14.01,2013-10-02 01:00:00,
2013-10-01 20:02:00,80.0,71.8,29.84,NNW,342,0.0,0.0,76,0.00,,CLR,0.00,,VWS V14.01,2013-10-02 01:02:00,
2013-10-01 20:07:00,79.8,71.9,29.84,NNW,342,0.0,0.0,77,0.00,,CLR,0.00,,VWS V14.01,2013-10-02 01:07:00,
2013-10-01 20:10:00,80.2,71.2,29.84,NNW,342,0.0,0.0,74,0.00,,CLR,0.00,,VWS V14.01,2013-10-02 01:10:00,
2013-10-01 20:12:00,79.8,71.9,29.84,NNW,342,0.0,0.0,77,0.00,,CLR,0.00,,VWS V14.01,2013-10-02 01:12:00,
2013-10-01 20:17:00,79.6,72.1,29.85,NNW,342,0.0,0.0,78,0.00,,CLR,0.00,,VWS V14.01,2013-10-02 01:17:00,
2013-10-01 20:20:00,79.8,71.9,29.84,NNW,342,0.0,0.0,77,0.00,,CLR,0.00,,VWS V14.01,2013-10-02 01:20:00,
2013-10-01 20:22:00,79.6,72.1,29.85,NNW,342,0.0,0.0,78,0.00,,CLR,0.00,,VWS V14.01,2013-10-02 01:22:00,
2013-10-01 20:27:00,79.4,71.9,29.85,NNW,342,0.0,0.0,78,0.00,,CLR,0.00,,VWS V14.01,2013-10-02 01:27:00,
2013-10-01 20:30:00,79.6,72.1,29.85,NNW,342,0.0,0.0,78,0.00,,CLR,0.00,,VWS V14.01,2013-10-02 01:30:00,
2013-10-01 20:32:00,79.4,72.3,29.86,NNW,342,0.0,0.0,79,0.00,,CLR,0.00,,VWS V14.01,2013-10-02 01:32:00,
2013-10-01 20:37:00,79.3,72.2,29.86,NNW,342,0.0,0.0,79,0.00,,CLR,0.00,,VWS V14.01,2013-10-02 01:37:00,
2013-10-01 20:40:00,79.6,72.5,29.85,NNW,342,0.0,0.0,79,0.00,,CLR,0.00,,VWS V14.01,2013-10-02 01:40:00,
2013-10-01 20:42:00,79.1,72.0,29.86,NNW,342,0.0,0.0,79,0.00,,CLR,0.00,,VWS V14.01,2013-10-02 01:42:00,
2013-10-01 20:47:00,79.1,72.0,29.87,NNW,342,0.0,0.0,79,0.00,,CLR,0.00,,VWS V14.01,2013-10-02 01:47:00,
2013-10-01 20:50:00,79.3,72.2,29.86,NNW,342,0.0,0.0,79,0.00,,CLR,0.00,,VWS V14.01,2013-10-02 01:50:00,
2013-10-01 20:52:00,78.9,71.8,29.87,WNW,301,0.0,0.0,79,0.00,,CLR,0.00,,VWS V14.01,2013-10-02 01:52:00,
2013-10-01 20:57:00,78.9,72.2,29.87,WNW,301,0.0,0.0,80,0.00,,CLR,0.00,,VWS V14.01,2013-10-02 01:57:00,
2013-10-01 21:00:00,79.1,72.0,29.87,NNW,342,0.0,0.0,79,0.00,,CLR,0.00,,VWS V14.01,2013-10-02 02:00:00,
2013-10-01 21:02:00,78.7,72.0,29.87,WNW,301,0.0,0.0,80,0.00,,CLR,0.00,,VWS V14.01,2013-10-02 02:02:00,
2013-10-01 21:07:00,78.5,71.8,29.87,WNW,301,0.0,0.0,80,0.00,,CLR,0.00,,VWS V14.01,2013-10-02 02:07:00,
2013-10-01 21:10:00,78.9,71.8,29.87,WNW,301,0.0,0.0,79,0.00,,CLR,0.00,,VWS V14.01,2013-10-02 02:10:00,
2013-10-01 21:12:00,78.3,71.6,29.87,WNW,301,0.0,0.0,80,0.00,,CLR,0.00,,VWS V14.01,2013-10-02 02:12:00,
2013-10-01 21:17:00,78.3,72.0,29.88,WNW,301,0.0,0.0,81,0.00,,CLR,0.00,,VWS V14.01,2013-10-02 02:17:00,
2013-10-01 21:20:00,78.5,71.8,29.87,WNW,301,0.0,0.0,80,0.00,,CLR,0.00,,VWS V14.01,2013-10-02 02:20:00,
2013-10-01 21:22:00,78.1,71.8,29.88,WNW,301,0.0,0.0,81,0.00,,CLR,0.00,,VWS V14.01,2013-10-02 02:22:00,
2013-10-01 21:27:00,78.0,71.7,29.88,WNW,301,0.0,0.0,81,0.00,,CLR,0.00,,VWS V14.01,2013-10-02 02:27:00,
2013-10-01 21:30:00,78.3,72.0,29.88,WNW,301,0.0,0.0,81,0.00,,CLR,0.00,,VWS V14.01,2013-10-02 02:30:00,
2013-10-01 21:32:00,77.8,71.9,29.89,WNW,301,0.0,0.0,82,0.00,,CLR,0.00,,VWS V14.01,2013-10-02 02:32:00,
2013-10-01 21:37:00,77.6,71.7,29.89,WNW,301,0.0,0.0,82,0.00,,CLR,0.00,,VWS V14.01,2013-10-02 02:37:00,
2013-10-01 21:40:00,78.0,71.7,29.88,WNW,301,0.0,0.0,81,0.00,,CLR,0.00,,VWS V14.01,2013-10-02 02:40:00,
2013-10-01 21:42:00,77.4,71.8,29.89,WNW,301,0.0,0.0,83,0.00,,CLR,0.00,,VWS V14.01,2013-10-02 02:42:00,
2013-10-01 21:47:00,77.2,71.6,29.89,WNW,301,0.0,0.0,83,0.00,,CLR,0.00,,VWS V14.01,2013-10-02 02:47:00,
2013-10-01 21:50:00,77.6,71.7,29.89,WNW,301,0.0,0.0,82,0.00,,CLR,0.00,,VWS V14.01,2013-10-02 02:50:00,
2013-10-01 21:52:00,77.1,71.5,29.89,WNW,301,0.0,0.0,83,0.00,,CLR,0.00,,VWS V14.01,2013-10-02 02:52:00,
2013-10-01 21:57:00,76.9,71.7,29.89,WNW,301,0.0,0.0,84,0.00,,CLR,0.00,,VWS V14.01,2013-10-02 02:57:00,
2013-10-01 22:00:00,77.2,71.6,29.89,WNW,301,0.0,0.0,83,0.00,,CLR,0.00,,VWS V14.01,2013-10-02 03:00:00,
2013-10-01 22:02:00,76.9,71.7,29.90,WNW,301,0.0,0.0,84,0.00,,CLR,0.00,,VWS V14.01,2013-10-02 03:02:00,
2013-10-01 22:07:00,76.7,71.5,29.90,WNW,301,0.0,0.0,84,0.00,,CLR,0.00,,VWS V14.01,2013-10-02 03:07:00,
2013-10-01 22:10:00,77.1,71.5,29.89,WNW,301,0.0,0.0,83,0.00,,CLR,0.00,,VWS V14.01,2013-10-02 03:10:00,
2013-10-01 22:12:00,76.5,71.7,29.90,WNW,301,0.0,0.0,85,0.00,,CLR,0.00,,VWS V14.01,2013-10-02 03:12:00,
2013-10-01 22:17:00,76.5,71.7,29.90,WNW,301,0.0,0.0,85,0.00,,CLR,0.00,,VWS V14.01,2013-10-02 03:17:00,
2013-10-01 22:20:00,76.7,71.5,29.90,WNW,301,0.0,0.0,84,0.00,,CLR,0.00,,VWS V14.01,2013-10-02 03:20:00,
2013-10-01 22:22:00,76.3,71.5,29.90,WNW,301,0.0,0.0,85,0.00,,CLR,0.00,,VWS V14.01,2013-10-02 03:22:00,
2013-10-01 22:27:00,76.3,71.8,29.90,WNW,301,0.0,0.0,86,0.00,,CLR,0.00,,VWS V14.01,2013-10-02 03:27:00,
2013-10-01 22:30:00,76.5,71.7,29.90,WNW,301,0.0,0.0,85,0.00,,CLR,0.00,,VWS V14.01,2013-10-02 03:30:00,
2013-10-01 22:32:00,76.2,71.7,29.90,WNW,301,0.0,0.0,86,0.00,,CLR,0.00,,VWS V14.01,2013-10-02 03:32:00,
2013-10-01 22:37:00,76.2,71.7,29.90,WNW,301,0.0,0.0,86,0.00,,CLR,0.00,,VWS V14.01,2013-10-02 03:37:00,
2013-10-01 22:40:00,76.3,71.8,29.90,WNW,301,0.0,0.0,86,0.00,,CLR,0.00,,VWS V14.01,2013-10-02 03:40:00,
2013-10-01 22:42:00,76.0,71.9,29.90,WNW,301,0.0,0.0,87,0.00,,CLR,0.00,,VWS V14.01,2013-10-02 03:42:00,
2013-10-01 22:47:00,76.0,71.9,29.91,WNW,301,0.0,0.0,87,0.00,,CLR,0.00,,VWS V14.01,2013-10-02 03:47:00,
2013-10-01 22:50:00,76.2,71.7,29.90,WNW,301,0.0,0.0,86,0.00,,CLR,0.00,,VWS V14.01,2013-10-02 03:50:00,
2013-10-01 22:52:00,76.0,71.9,29.91,WNW,301,0.0,0.0,87,0.00,,CLR,0.00,,VWS V14.01,2013-10-02 03:52:00,
2013-10-01 22:57:00,76.0,72.2,29.91,WNW,301,0.0,0.0,88,0.00,,CLR,0.00,,VWS V14.01,2013-10-02 03:57:00,
2013-10-01 23:00:00,76.0,71.9,29.91,WNW,301,0.0,0.0,87,0.00,,CLR,0.00,,VWS V14.01,2013-10-02 04:00:00,
2013-10-01 23:01:00,76.2,72.4,29.91,WNW,301,0.0,0.0,88,0.00,,FEW013,0.00,,VWS V14.01,2013-10-02 04:01:00,
2013-10-01 23:02:00,76.2,72.4,29.91,WNW,301,0.0,0.0,88,0.00,,FEW013,0.00,,VWS V14.01,2013-10-02 04:02:00,
2013-10-01 23:07:00,76.2,72.4,29.91,WNW,301,0.0,0.0,88,0.00,,FEW013,0.00,,VWS V14.01,2013-10-02 04:07:00,
2013-10-01 23:10:00,76.0,72.2,29.91,WNW,301,0.0,0.0,88,0.00,,CLR,0.00,,VWS V14.01,2013-10-02 04:10:00,
2013-10-01 23:12:00,76.2,72.4,29.91,WNW,301,0.0,0.0,88,0.00,,FEW013,0.00,,VWS V14.01,2013-10-02 04:12:00,
2013-10-01 23:17:00,76.2,72.4,29.91,WNW,301,0.0,0.0,88,0.00,,FEW013,0.00,,VWS V14.01,2013-10-02 04:17:00,
2013-10-01 23:20:00,76.2,72.4,29.91,WNW,301,0.0,0.0,88,0.00,,CLR,0.00,,VWS V14.01,2013-10-02 04:20:00,
2013-10-01 23:22:00,76.2,72.4,29.91,WNW,301,0.0,0.0,88,0.00,,BKN011,0.00,,VWS V14.01,2013-10-02 04:22:00,
2013-10-01 23:27:00,76.2,72.4,29.91,WNW,301,0.0,0.0,88,0.00,,BKN011,0.00,,VWS V14.01,2013-10-02 04:27:00,
2013-10-01 23:30:00,76.2,72.4,29.91,WNW,301,0.0,0.0,88,0.00,,CLR,0.00,,VWS V14.01,2013-10-02 04:30:00,
2013-10-01 23:32:00,76.2,72.4,29.91,WNW,301,0.0,0.0,88,0.00,,BKN011,0.00,,VWS V14.01,2013-10-02 04:32:00,
2013-10-01 23:37:00,76.2,72.4,29.91,WNW,301,0.0,0.0,88,0.00,,BKN011,0.00,,VWS V14.01,2013-10-02 04:37:00,
2013-10-01 23:40:00,76.2,72.4,29.91,WNW,301,0.0,0.0,88,0.00,,CLR,0.00,,VWS V14.01,2013-10-02 04:40:00,
2013-10-01 23:42:00,76.3,72.5,29.91,WNW,301,0.0,0.0,88,0.00,,BKN011,0.00,,VWS V14.01,2013-10-02 04:42:00,
2013-10-01 23:47:00,76.3,72.5,29.91,WNW,301,0.0,0.0,88,0.00,,BKN011,0.00,,VWS V14.01,2013-10-02 04:47:00,
2013-10-01 23:50:00,76.2,72.4,29.91,WNW,301,0.0,0.0,88,0.00,,CLR,0.00,,VWS V14.01,2013-10-02 04:50:00,
2013-10-01 23:52:00,76.3,72.5,29.91,WNW,301,0.0,0.0,88,0.00,,BKN011,0.00,,VWS V14.01,2013-10-02 04:52:00,
2013-10-01 23:57:00,76.3,72.5,29.91,WNW,301,0.0,0.0,88,0.00,,BKN011,0.00,,VWS V14.01,2013-10-02 04:57:00,